Location: Piotrkow Trybunalski
(51.4000°N, 19.6830°E)
Time: 14:57:08
(UTC+02:00)

Explorer 7 - Pass Details

Date: 29 January 2023
Orbit: 478 x 656 km, 50.3° (Epoch: 01 April)

Event Time Altitude Azimuth Distance (km) Brightness Sun altitude
Rises 17:17:31 0° 277° (W) 2,871 11.8 -8.3°
Reaches altitude 10° 17:19:47 10° 275° (W) 1,992 10.9 -8.7°
Maximum altitude 17:24:21 69° 193° (SSW) 690 7.4 -9.3°
Drops below altitude 10° 17:29:06 10° 111° (ESE) 2,064 9.3 -10.0°
Enters shadow 17:29:37 - 110° (ESE) 2,265 9.5 -10.1°
